Juneau, WI

3:08 PM CST on February 20, 2017 (GMT -0600)
Dodge County

Weather History for KUNU - February, 2013

Change the Weather History Date:

Sunday, February 24, 2013

  Actual Average Record
Temperature  
Mean Temperature 23 °F -  
Max Temperature 32 °F 31 °F 60 °F (2002)
Min Temperature 14 °F 19 °F -8 °F (1993)
Degree Days  
Heating Degree Days 42    
Moisture  
Dew Point 18 °F    
Average Humidity 79    
Maximum Humidity 100    
Minimum Humidity 60    
Precipitation  
Precipitation 0.00 in - - ()
Sea Level Pressure  
Sea Level Pressure 30.05 in    
Wind  
Wind Speed 4 mph (South)    
Max Wind Speed 8 mph    
Max Gust Speed -    
Visibility 9 miles    
Events      
Averages and records for this station are not official NWS values.
T = Trace of Precipitation, MM = Missing Value Source: NWS Daily Summary

Daily Weather History Graph

Daily Weather History Graph

Search for Another Location

Airport or City:

Trip Planner

Search our weather history database for the weather conditions in past years. The results will help you decide how hot, cold, wet, or windy it might be!

Date:

Astronomy

Feb. 24, 2013 Rise Set
Actual Time 6:38 AM CST 5:37 PM CST
Civil Twilight 6:10 AM CST 6:06 PM CST
Nautical Twilight 5:36 AM CST 6:39 PM CST
Astronomical Twilight 5:03 AM CST 7:12 PM CST
Moon 4:48 PM CST (2/24) 5:36 AM CST (2/24)
Length of Visible Light 11h 56m
Length of Day
10h 58m
Waxing Gibbous, 99% of the Moon is Illuminated
Feb 24
Waxing Gibbous
Feb 25
Full
Mar 4
Last Quarter
Mar 11
New
Mar 19
First Quarter

Hourly Weather History & Observations

Time (CST) Temp. Windchill Dew Point Humidity Pressure Visibility Wind Dir Wind Speed Gust Speed Precip Events Conditions
12:15 AM 17.6 °F 10.7 °F 12.2 °F 79% 29.92 in 10.0 mi SW 4.6 mph - N/A   Clear
12:35 AM 17.6 °F 9.3 °F 12.2 °F 79% 29.92 in 10.0 mi SW 5.8 mph - N/A   Mostly Cloudy
12:55 AM 17.6 °F 8.2 °F 14.0 °F 86% 29.93 in 10.0 mi WSW 6.9 mph - N/A   Overcast
1:15 AM 17.6 °F 9.3 °F 14.0 °F 86% 29.93 in 10.0 mi WSW 5.8 mph - N/A   Overcast
1:35 AM 19.4 °F 11.5 °F 14.0 °F 80% 29.93 in 10.0 mi WSW 5.8 mph - N/A   Overcast
1:55 AM 17.6 °F 8.2 °F 14.0 °F 86% 29.94 in 10.0 mi SW 6.9 mph - N/A   Overcast
2:15 AM 19.4 °F 9.5 °F 14.0 °F 80% 29.94 in 10.0 mi SW 8.1 mph - N/A   Overcast
2:35 AM 19.4 °F 11.5 °F 14.0 °F 80% 29.94 in 10.0 mi WSW 5.8 mph - N/A   Overcast
2:55 AM 19.4 °F 11.5 °F 14.0 °F 80% 29.94 in 10.0 mi WSW 5.8 mph - N/A   Overcast
3:15 AM 19.4 °F 10.4 °F 14.0 °F 80% 29.95 in 10.0 mi WSW 6.9 mph - N/A   Overcast
3:35 AM 19.4 °F 10.4 °F 15.8 °F 86% 29.95 in 10.0 mi WSW 6.9 mph - N/A   Overcast
3:55 AM 19.4 °F 11.5 °F 15.8 °F 86% 29.95 in 10.0 mi WSW 5.8 mph - N/A   Overcast
4:15 AM 19.4 °F 10.4 °F 14.0 °F 80% 29.96 in 10.0 mi WSW 6.9 mph - N/A   Overcast
4:35 AM 19.4 °F 14.3 °F 14.0 °F 80% 29.97 in 10.0 mi WSW 3.5 mph - N/A   Overcast
4:55 AM 19.4 °F 14.3 °F 15.8 °F 86% 29.97 in 10.0 mi West 3.5 mph - N/A   Overcast
5:15 AM 19.4 °F 11.5 °F 14.0 °F 80% 29.98 in 10.0 mi SSW 5.8 mph - N/A   Overcast
5:35 AM 17.6 °F 9.3 °F 14.0 °F 86% 29.99 in 10.0 mi SSW 5.8 mph - N/A   Scattered Clouds
5:55 AM 14.0 °F 5.1 °F 12.2 °F 93% 30.00 in 10.0 mi SSW 5.8 mph - N/A   Clear
6:15 AM 14.0 °F 8.2 °F 12.2 °F 93% 30.01 in 7.0 mi SW 3.5 mph - N/A   Clear
6:35 AM 15.8 °F 8.6 °F 14.0 °F 93% 30.01 in 7.0 mi SW 4.6 mph - N/A   Clear
7:15 AM 14.0 °F - 12.2 °F 93% 30.03 in 5.0 mi Calm Calm - N/A   Clear
7:35 AM 14.0 °F - 12.2 °F 93% 30.03 in 5.0 mi Calm Calm - N/A   Clear
7:55 AM 17.6 °F 12.3 °F 14.0 °F 86% 30.04 in 5.0 mi SSW 3.5 mph - N/A   Clear
8:15 AM 17.6 °F - 15.8 °F 93% 30.04 in 7.0 mi Calm Calm - N/A   Clear
8:35 AM 17.6 °F 8.2 °F 14.0 °F 86% 30.06 in 7.0 mi SSW 6.9 mph - N/A   Clear
8:55 AM 17.6 °F 10.7 °F 15.8 °F 93% 30.06 in 7.0 mi SW 4.6 mph - N/A   Clear
9:15 AM 19.4 °F 12.8 °F 17.6 °F 93% 30.06 in 10.0 mi WSW 4.6 mph - N/A   Clear
9:35 AM 21.2 °F - 15.8 °F 80% 30.06 in 10.0 mi Calm Calm - N/A   Clear
9:55 AM 24.8 °F - 15.8 °F 69% 30.07 in 10.0 mi Calm Calm - N/A   Clear
10:15 AM 24.8 °F 20.5 °F 15.8 °F 69% 30.07 in 10.0 mi SSE 3.5 mph - N/A   Clear
10:35 AM 24.8 °F - 17.6 °F 74% 30.07 in 10.0 mi Calm Calm - N/A   Clear
10:55 AM 26.6 °F - 17.6 °F 69% 30.07 in 10.0 mi Calm Calm - N/A   Clear
11:15 AM 26.6 °F 20.0 °F 17.6 °F 69% 30.08 in 10.0 mi SSW 5.8 mph - N/A   Clear
11:35 AM 28.4 °F 24.6 °F 17.6 °F 64% 30.09 in 10.0 mi SSW 3.5 mph - N/A   Clear
11:55 AM 28.4 °F 23.3 °F 19.4 °F 69% 30.09 in 10.0 mi SSW 4.6 mph - N/A   Clear
12:15 PM 28.4 °F 24.6 °F 19.4 °F 69% 30.09 in 10.0 mi WSW 3.5 mph - N/A   Clear
12:35 PM 28.4 °F - 19.4 °F 69% 30.08 in 10.0 mi Calm Calm - N/A   Clear
12:55 PM 30.2 °F 26.7 °F 19.4 °F 64% 30.08 in 10.0 mi SSW 3.5 mph - N/A   Clear
1:15 PM 30.2 °F 26.7 °F 19.4 °F 64% 30.08 in 10.0 mi SSW 3.5 mph - N/A   Clear
1:35 PM 30.2 °F - 19.4 °F 64% 30.08 in 10.0 mi Calm Calm - N/A   Clear
1:55 PM 30.2 °F - 19.4 °F 64% 30.08 in 10.0 mi Calm Calm - N/A   Clear
2:15 PM 32.0 °F 28.7 °F 19.4 °F 60% 30.08 in 10.0 mi South 3.5 mph - N/A   Clear
2:35 PM 32.0 °F - 19.4 °F 60% 30.09 in 10.0 mi Calm Calm - N/A   Clear
2:55 PM 32.0 °F - 19.4 °F 60% 30.08 in 10.0 mi Calm Calm - N/A   Clear
3:15 PM 32.0 °F - 21.2 °F 64% 30.08 in 10.0 mi Calm Calm - N/A   Clear
3:35 PM 32.0 °F - 21.2 °F 64% 30.08 in 10.0 mi Calm Calm - N/A   Clear
3:55 PM 32.0 °F - 21.2 °F 64% 30.08 in 10.0 mi Calm Calm - N/A   Clear
4:15 PM 32.0 °F - 21.2 °F 64% 30.08 in 10.0 mi Calm Calm - N/A   Clear
4:35 PM 32.0 °F - 21.2 °F 64% 30.08 in 10.0 mi Calm Calm - N/A   Clear
4:55 PM 32.0 °F - 21.2 °F 64% 30.09 in 10.0 mi Calm Calm - N/A   Clear
5:15 PM 30.2 °F 26.7 °F 21.2 °F 69% 30.09 in 10.0 mi East 3.5 mph - N/A   Clear
5:35 PM 28.4 °F 24.6 °F 21.2 °F 74% 30.09 in 10.0 mi ESE 3.5 mph - N/A   Clear
5:55 PM 28.4 °F 23.3 °F 21.2 °F 74% 30.09 in 10.0 mi ESE 4.6 mph - N/A   Clear
6:15 PM 28.4 °F 23.3 °F 21.2 °F 74% 30.10 in 10.0 mi ESE 4.6 mph - N/A   Clear
6:35 PM 28.4 °F 22.2 °F 21.2 °F 74% 30.10 in 10.0 mi ESE 5.8 mph - N/A   Clear
6:55 PM 28.4 °F 22.2 °F 21.2 °F 74% 30.11 in 10.0 mi ESE 5.8 mph - N/A   Clear
7:15 PM 26.6 °F 20.0 °F 21.2 °F 80% 30.12 in 10.0 mi ESE 5.8 mph - N/A   Clear
7:35 PM 26.6 °F 20.0 °F 21.2 °F 80% 30.12 in 10.0 mi ESE 5.8 mph - N/A   Clear
7:55 PM 26.6 °F 20.0 °F 21.2 °F 80% 30.12 in 10.0 mi ESE 5.8 mph - N/A   Clear
8:15 PM 26.6 °F 20.0 °F 21.2 °F 80% 30.11 in 7.0 mi ESE 5.8 mph - N/A   Clear
8:35 PM 26.6 °F 20.0 °F 21.2 °F 80% 30.11 in 7.0 mi ESE 5.8 mph - N/A   Clear
8:55 PM 24.8 °F 17.9 °F 21.2 °F 86% 30.11 in 7.0 mi SE 5.8 mph - N/A   Clear
9:15 PM 23.0 °F 18.4 °F 21.2 °F 93% 30.12 in 7.0 mi SSE 3.5 mph - N/A   Clear
9:35 PM 23.0 °F 18.4 °F 19.4 °F 86% 30.12 in 7.0 mi SSE 3.5 mph - N/A   Clear
9:55 PM 23.0 °F 18.4 °F 19.4 °F 86% 30.12 in 7.0 mi SSE 3.5 mph - N/A   Clear
10:15 PM 23.0 °F - 19.4 °F 86% 30.12 in 7.0 mi Calm Calm - N/A   Clear
10:35 PM 21.2 °F 12.6 °F 17.6 °F 86% 30.12 in 4.0 mi ESE 6.9 mph - N/A   Clear
10:55 PM 21.2 °F 12.6 °F 19.4 °F 93% 30.12 in 4.0 mi ESE 6.9 mph - N/A   Clear
11:15 PM 21.2 °F 12.6 °F 21.2 °F 100% 30.12 in 4.0 mi SE 6.9 mph - N/A   Clear
11:35 PM 21.2 °F 12.6 °F 19.4 °F 93% 30.12 in 3.0 mi ESE 6.9 mph - N/A   Clear
11:55 PM 19.4 °F 11.5 °F 19.4 °F 100% 30.12 in 2.5 mi SE 5.8 mph - N/A   Clear